* Astronomy

Members Login
Username 
 
Password 
    Remember Me  
Post Info TOPIC: Asteroid 2011 EL17


L

Posts: 131433
Date:
Asteroid 2011 EL17
Permalink  
 


Orbital elements:
2011 EL17 Earth MOID = 0.0105 AU
Epoch 2011 Feb. 8.0 TT = JDT 2455600.5 MPC
M 7.55266 (2000.0) P Q
n 0.52739877 Peri. 302.33903 -0.39314561 -0.91941507
a 1.5172016 Node 170.79282 +0.86431209 -0.37346905
e 0.4099779 Incl. 3.80030 +0.31368956 -0.12327533
P 1.87 H 26.7 G 0.15 U 6

MPEC 2011 - E43


__________________
Page 1 of 1  sorted by
 
Quick Reply

Please log in to post quick replies.



Create your own FREE Forum
Report Abuse
Powered by ActiveBoard